Location: Moscow
(38.3171°N, 79.0889°W)
Time: 01:25:17
(UTC+00:00)

SL-4 R/B - Pass Details

Date: 07 November 2025
Orbit: 386 x 526 km, 51.6° (Epoch: 08 December)

Event Time Altitude Azimuth Distance (km) Brightness Sun altitude
Rises 22:54:00 0° 317° (NW) 2,387 5.7 -9.0°
Reaches altitude 10° 22:57:26 10° 354° (N) 1,560 4.3 -9.7°
Maximum altitude 22:58:34 11° 13° (NNE) 1,501 4.0 -9.9°
Drops below altitude 10° 22:59:43 10° 32° (NNE) 1,587 4.0 -10.1°
Enters shadow 23:00:11 - 38° (NE) 1,661 4.0 -10.2°
